﻿_id,日時,平均風速(m/s),平均風向,最大瞬間風速(m/s),最大風速時風向,気温(℃),湿度(%),10分間移動積算雨量(mm),1時間移動積算雨量(mm),日雨量(mm),累計雨量(mm),日射(日積算)(MJ/m2),日照(日積算)(min),現地気圧(hPa),海面気圧(hPa)
1,2024-04-15T00:00:00,2.1,西,4.2,西,14.6,73.3,0,0,0,0,25.35,678,1009.3,1023.3
2,2024-04-15T00:01:00,2.4,西南西,4.9,西,14.5,72.6,0,0,0,0,0,0,1009.3,1023.3
3,2024-04-15T00:02:00,2.6,西南西,4.9,西,14.4,72.9,0,0,0,0,0,0,1009.2,1023.2
4,2024-04-15T00:03:00,2.7,西南西,4.9,西,14.5,73.6,0,0,0,0,0,0,1009.2,1023.2
5,2024-04-15T00:04:00,2.7,西南西,4.9,西,14.5,73.7,0,0,0,0,0,0,1009.3,1023.3
6,2024-04-15T00:05:00,2.8,西南西,4.9,西,14.4,74,0,0,0,0,0,0,1009.3,1023.3
7,2024-04-15T00:06:00,2.8,西,4.9,西,14.6,74.3,0,0,0,0,0,0,1009.3,1023.3
8,2024-04-15T00:07:00,2.8,西南西,4.9,西,14.6,74.1,0,0,0,0,0,0,1009.3,1023.3
9,2024-04-15T00:08:00,2.7,西南西,4.9,西,15.1,74.8,0,0,0,0,0,0,1009.2,1023.1
10,2024-04-15T00:09:00,2.7,西南西,4.9,西,15,73.3,0,0,0,0,0,0,1009.2,1023.1
11,2024-04-15T00:10:00,2.7,西南西,4.9,西,15,72.8,0,0,0,0,0,0,1009.2,1023.1
12,2024-04-15T00:11:00,2.7,西南西,4.6,西,15,72.5,0,0,0,0,0,0,1009.3,1023.2
13,2024-04-15T00:12:00,2.7,西南西,4.6,西,15,72.8,0,0,0,0,0,0,1009.2,1023.1
14,2024-04-15T00:13:00,2.6,西南西,4.6,西,15.3,74.1,0,0,0,0,0,0,1009.2,1023.1
15,2024-04-15T00:14:00,2.4,西南西,4.6,西,15,72.4,0,0,0,0,0,0,1009.3,1023.2
16,2024-04-15T00:15:00,2.4,西南西,4.6,西,14.9,71.9,0,0,0,0,0,0,1009.2,1023.2
17,2024-04-15T00:16:00,2.4,西南西,4.6,西,15,72.5,0,0,0,0,0,0,1009.2,1023.1
18,2024-04-15T00:17:00,2.3,西南西,4.6,西,15.1,72.6,0,0,0,0,0,0,1009.2,1023.1
19,2024-04-15T00:18:00,2.3,西南西,4.6,西,15.1,72.1,0,0,0,0,0,0,1009.2,1023.1
20,2024-04-15T00:19:00,2.1,西南西,4.6,西,15,71.9,0,0,0,0,0,0,1009.2,1023.1
21,2024-04-15T00:20:00,2.1,西南西,4.6,西,14.9,71.7,0,0,0,0,0,0,1009.2,1023.2
22,2024-04-15T00:21:00,2,西南西,3.4,西南西,14.5,71.6,0,0,0,0,0,0,1009.2,1023.2
23,2024-04-15T00:22:00,2,西南西,3.1,西,14.2,72.6,0,0,0,0,0,0,1009.2,1023.2
24,2024-04-15T00:23:00,1.9,西南西,3.1,西,14.3,73.9,0,0,0,0,0,0,1009.2,1023.2
25,2024-04-15T00:24:00,1.9,西南西,3.1,西,14.5,74.1,0,0,0,0,0,0,1009.2,1023.2
26,2024-04-15T00:25:00,1.8,西南西,3.1,西,14.6,73.8,0,0,0,0,0,0,1009.2,1023.2
27,2024-04-15T00:26:00,1.7,西南西,3.1,西,14.6,73.6,0,0,0,0,0,0,1009.2,1023.2
28,2024-04-15T00:27:00,1.7,西南西,3.1,西,14.8,73.4,0,0,0,0,0,0,1009.2,1023.2
29,2024-04-15T00:28:00,1.6,西南西,3.1,西,14.9,72.4,0,0,0,0,0,0,1009.2,1023.2
30,2024-04-15T00:29:00,1.5,西南西,3.1,西,14.8,72.3,0,0,0,0,0,0,1009.3,1023.3
31,2024-04-15T00:30:00,1.3,西南西,3.1,西,14.7,72.5,0,0,0,0,0,0,1009.2,1023.2
32,2024-04-15T00:31:00,1.1,南西,2.5,西南西,14.7,72.8,0,0,0,0,0,0,1009.2,1023.2
33,2024-04-15T00:32:00,1,南西,2.5,西南西,14.7,73.4,0,0,0,0,0,0,1009.2,1023.2
34,2024-04-15T00:33:00,0.9,南西,2.5,西南西,14.8,73.6,0,0,0,0,0,0,1009.2,1023.2
35,2024-04-15T00:34:00,0.9,南西,2.5,西南西,14.9,74.5,0,0,0,0,0,0,1009.2,1023.2
36,2024-04-15T00:35:00,0.7,南西,1.9,西,14.6,73.6,0,0,0,0,0,0,1009.2,1023.2
37,2024-04-15T00:36:00,0.6,南西,1.9,西,14.5,73.5,0,0,0,0,0,0,1009.2,1023.2
38,2024-04-15T00:37:00,0.5,南西,1.8,西南西,14.4,73.9,0,0,0,0,0,0,1009.2,1023.2
39,2024-04-15T00:38:00,0.5,南西,1.3,西,14.1,73.9,0,0,0,0,0,0,1009.2,1023.2
40,2024-04-15T00:39:00,0.5,南西,1.4,西南西,14,74.8,0,0,0,0,0,0,1009.2,1023.2
41,2024-04-15T00:40:00,0.6,西南西,1.4,西南西,14.2,76.5,0,0,0,0,0,0,1009.2,1023.2
42,2024-04-15T00:41:00,0.7,西南西,1.6,西,14.4,77.2,0,0,0,0,0,0,1009.2,1023.2
43,2024-04-15T00:42:00,0.7,西南西,1.6,西,14.1,74.7,0,0,0,0,0,0,1009.2,1023.2
44,2024-04-15T00:43:00,0.8,西南西,1.6,西,14.2,75.4,0,0,0,0,0,0,1009.2,1023.2
45,2024-04-15T00:44:00,0.9,西南西,1.6,西,14.2,76.5,0,0,0,0,0,0,1009.2,1023.2
46,2024-04-15T00:45:00,1,西,2,西,13.8,75.4,0,0,0,0,0,0,1009.2,1023.2
47,2024-04-15T00:46:00,1.1,西,2,西,13.8,76.5,0,0,0,0,0,0,1009.2,1023.2
48,2024-04-15T00:47:00,1.1,西,2,西,13.9,77.5,0,0,0,0,0,0,1009.3,1023.3
49,2024-04-15T00:48:00,1.1,西,2,西,14,78.1,0,0,0,0,0,0,1009.2,1023.2
50,2024-04-15T00:49:00,1.1,西,2,西,14.4,79.9,0,0,0,0,0,0,1009.2,1023.2
51,2024-04-15T00:50:00,1,西,2,西,14.3,78.6,0,0,0,0,0,0,1009.3,1023.3
52,2024-04-15T00:51:00,1,西,2,西,14.3,77.4,0,0,0,0,0,0,1009.3,1023.3
53,2024-04-15T00:52:00,1,西,2.1,西,14.1,75.8,0,0,0,0,0,0,1009.3,1023.3
54,2024-04-15T00:53:00,1,西,2.3,西,13.6,75.4,0,0,0,0,0,0,1009.3,1023.3
55,2024-04-15T00:54:00,1.1,西,2.3,西,13.5,76.7,0,0,0,0,0,0,1009.3,1023.3
56,2024-04-15T00:55:00,1.1,西,2.3,西,13.5,77.4,0,0,0,0,0,0,1009.3,1023.3
57,2024-04-15T00:56:00,1.1,西,2.3,西,13.5,77.5,0,0,0,0,0,0,1009.4,1023.4
58,2024-04-15T00:57:00,1,西,2.3,西,14,77.9,0,0,0,0,0,0,1009.4,1023.4
59,2024-04-15T00:58:00,1,西,2.3,西,14.2,77.7,0,0,0,0,0,0,1009.4,1023.4
60,2024-04-15T00:59:00,1,西,2.3,西,14.4,79,0,0,0,0,0,0,1009.4,1023.4
61,2024-04-15T01:00:00,1,西,2.3,西,14.6,77.9,0,0,0,0,0,0,1009.3,1023.3
62,2024-04-15T01:01:00,1,西,2.3,西,14.7,78,0,0,0,0,0,0,1009.3,1023.3
63,2024-04-15T01:02:00,0.9,西,2.3,西,14.4,77.2,0,0,0,0,0,0,1009.4,1023.4
64,2024-04-15T01:03:00,0.7,西,1.9,西,14.2,76.7,0,0,0,0,0,0,1009.4,1023.4
65,2024-04-15T01:04:00,0.7,西,1.5,西,14.2,77.5,0,0,0,0,0,0,1009.4,1023.4
66,2024-04-15T01:05:00,0.6,西南西,1.3,西北西,14.4,78,0,0,0,0,0,0,1009.4,1023.4
67,2024-04-15T01:06:00,0.5,西南西,1.1,北西,14.7,78.9,0,0,0,0,0,0,1009.3,1023.3
68,2024-04-15T01:07:00,0.5,南西,1,南,14.7,78.6,0,0,0,0,0,0,1009.4,1023.4
69,2024-04-15T01:08:00,0.5,南西,1,南,14.7,78.2,0,0,0,0,0,0,1009.3,1023.3
70,2024-04-15T01:09:00,0.6,南西,1.2,南南西,14.6,77.9,0,0,0,0,0,0,1009.3,1023.3
71,2024-04-15T01:10:00,0.6,南西,1.2,南南西,14.7,77.9,0,0,0,0,0,0,1009.3,1023.3
72,2024-04-15T01:11:00,0.7,南西,1.2,南南西,14.7,77.5,0,0,0,0,0,0,1009.3,1023.3
73,2024-04-15T01:12:00,0.7,南西,1.2,南南西,14.5,77.5,0,0,0,0,0,0,1009.3,1023.3
74,2024-04-15T01:13:00,0.7,南南西,1.2,南南西,14,78,0,0,0,0,0,0,1009.3,1023.3
75,2024-04-15T01:14:00,0.7,南南西,1.2,南南西,14.2,79.3,0,0,0,0,0,0,1009.3,1023.3
76,2024-04-15T01:15:00,0.7,南南西,1.2,南南西,14.6,79.4,0,0,0,0,0,0,1009.2,1023.2
77,2024-04-15T01:16:00,0.8,南南西,1.2,南南西,14.5,78.8,0,0,0,0,0,0,1009.2,1023.2
78,2024-04-15T01:17:00,0.8,南南西,1.3,南,14.4,78.7,0,0,0,0,0,0,1009.2,1023.2
79,2024-04-15T01:18:00,0.8,南南西,1.3,南,14.3,78.8,0,0,0,0,0,0,1009.2,1023.2
80,2024-04-15T01:19:00,0.8,南南西,1.3,南,14.2,78.3,0,0,0,0,0,0,1009.3,1023.3
81,2024-04-15T01:20:00,0.7,南南西,1.3,南,14.1,78,0,0,0,0,0,0,1009.3,1023.3
82,2024-04-15T01:21:00,0.7,南南西,1.3,南,13.9,78.5,0,0,0,0,0,0,1009.3,1023.3
83,2024-04-15T01:22:00,0.7,南西,1.4,西,13.6,78.3,0,0,0,0,0,0,1009.2,1023.2
84,2024-04-15T01:23:00,0.8,南西,1.4,西,13.3,78.4,0,0,0,0,0,0,1009.3,1023.3
85,2024-04-15T01:24:00,0.9,南西,1.4,西,13.4,79.6,0,0,0,0,0,0,1009.2,1023.2
86,2024-04-15T01:25:00,0.9,南西,1.4,西,13.6,80.6,0,0,0,0,0,0,1009.3,1023.3
87,2024-04-15T01:26:00,0.8,西南西,1.4,西,14,81.9,0,0,0,0,0,0,1009.3,1023.3
88,2024-04-15T01:27:00,0.8,西南西,1.4,西,13.9,81,0,0,0,0,0,0,1009.3,1023.3
89,2024-04-15T01:28:00,0.7,西南西,1.4,西,13.9,80.6,0,0,0,0,0,0,1009.3,1023.3
90,2024-04-15T01:29:00,0.8,西南西,1.4,西,13.8,80.6,0,0,0,0,0,0,1009.3,1023.3
91,2024-04-15T01:30:00,0.8,西南西,1.4,西,13.6,80.4,0,0,0,0,0,0,1009.3,1023.3
92,2024-04-15T01:31:00,0.8,西南西,1.4,西,13.7,80.8,0,0,0,0,0,0,1009.3,1023.3
93,2024-04-15T01:32:00,0.7,西南西,1.4,西,13.8,81.4,0,0,0,0,0,0,1009.3,1023.3
94,2024-04-15T01:33:00,0.7,西南西,1.4,西,13.9,81.2,0,0,0,0,0,0,1009.3,1023.3
95,2024-04-15T01:34:00,0.7,西南西,1.5,西,13.9,80.8,0,0,0,0,0,0,1009.2,1023.2
96,2024-04-15T01:35:00,0.7,西南西,1.8,西,13.7,79.7,0,0,0,0,0,0,1009.2,1023.2
97,2024-04-15T01:36:00,0.9,西南西,2,西,13.6,79.8,0,0,0,0,0,0,1009.2,1023.2
98,2024-04-15T01:37:00,0.9,西,2.3,西,13.6,79.6,0,0,0,0,0,0,1009.2,1023.2
99,2024-04-15T01:38:00,0.9,西,2.3,西,13.6,80.1,0,0,0,0,0,0,1009.2,1023.2
100,2024-04-15T01:39:00,0.9,西,2.3,西,13.8,80.7,0,0,0,0,0,0,1009.2,1023.2
101,2024-04-15T01:40:00,0.8,西,2.3,西,13.8,81,0,0,0,0,0,0,1009.2,1023.2
102,2024-04-15T01:41:00,0.8,西,2.3,西,13.9,81,0,0,0,0,0,0,1009.2,1023.2
103,2024-04-15T01:42:00,0.9,西,2.3,西,13.6,80,0,0,0,0,0,0,1009.2,1023.2
104,2024-04-15T01:43:00,1,西,2.3,西,13.5,80.3,0,0,0,0,0,0,1009.2,1023.2
105,2024-04-15T01:44:00,1,西,2.3,西,13.4,80.5,0,0,0,0,0,0,1009.2,1023.2
106,2024-04-15T01:45:00,1,西,2.3,西,13.5,81.2,0,0,0,0,0,0,1009.2,1023.2
107,2024-04-15T01:46:00,1,西南西,2.3,西,13.7,81.3,0,0,0,0,0,0,1009.1,1023.1
108,2024-04-15T01:47:00,0.9,西南西,2.3,西南西,14,81.3,0,0,0,0,0,0,1009.2,1023.2
109,2024-04-15T01:48:00,0.9,西南西,2.3,西南西,14.1,80.7,0,0,0,0,0,0,1009.2,1023.2
110,2024-04-15T01:49:00,0.9,西南西,2.3,西南西,14.2,80.6,0,0,0,0,0,0,1009.2,1023.2
111,2024-04-15T01:50:00,0.9,西南西,2.3,西南西,14,79.8,0,0,0,0,0,0,1009.2,1023.2
112,2024-04-15T01:51:00,0.9,西南西,2.3,西南西,14.2,79.7,0,0,0,0,0,0,1009.2,1023.2
113,2024-04-15T01:52:00,0.8,南西,2.3,西南西,14.3,79.3,0,0,0,0,0,0,1009.2,1023.2
114,2024-04-15T01:53:00,0.7,西南西,1.6,西,14.3,78.5,0,0,0,0,0,0,1009.1,1023.1
115,2024-04-15T01:54:00,0.6,南西,1.4,南南西,14.1,78.3,0,0,0,0,0,0,1009.2,1023.2
116,2024-04-15T01:55:00,0.5,南西,1.4,南南西,13.9,78.5,0,0,0,0,0,0,1009.1,1023.1
117,2024-04-15T01:56:00,0.4,南西,1.3,南,13.9,78.8,0,0,0,0,0,0,1009.1,1023.1
118,2024-04-15T01:57:00,0.4,南西,1.3,南,13.8,79.1,0,0,0,0,0,0,1009.1,1023.1
119,2024-04-15T01:58:00,0.4,西南西,1.7,西南西,14,79.8,0,0,0,0,0,0,1009.1,1023.1
120,2024-04-15T01:59:00,0.4,西南西,1.7,西南西,13.7,78.4,0,0,0,0,0,0,1009.2,1023.2
121,2024-04-15T02:00:00,0.5,西南西,1.7,西南西,13.8,79.3,0,0,0,0,0,0,1009.1,1023.1
122,2024-04-15T02:01:00,0.5,西南西,1.7,西南西,13.6,79.7,0,0,0,0,0,0,1009.1,1023.1
123,2024-04-15T02:02:00,0.5,西南西,1.7,西南西,13.9,80.7,0,0,0,0,0,0,1009.1,1023.1
124,2024-04-15T02:03:00,0.5,西南西,1.7,西南西,13.7,80.4,0,0,0,0,0,0,1009.2,1023.2
125,2024-04-15T02:04:00,0.5,西南西,1.7,西南西,13.5,80.6,0,0,0,0,0,0,1009.1,1023.1
126,2024-04-15T02:05:00,0.6,西南西,1.7,西南西,13.4,80.3,0,0,0,0,0,0,1009.1,1023.1
127,2024-04-15T02:06:00,0.7,西南西,1.7,西南西,13.4,80.1,0,0,0,0,0,0,1009.2,1023.2
128,2024-04-15T02:07:00,0.8,西,1.7,西南西,13.4,79.7,0,0,0,0,0,0,1009.2,1023.2
129,2024-04-15T02:08:00,0.8,西,1.7,西,13.5,79.8,0,0,0,0,0,0,1009.2,1023.2
130,2024-04-15T02:09:00,0.7,西,1.6,西北西,13.6,80.5,0,0,0,0,0,0,1009.1,1023.1
131,2024-04-15T02:10:00,0.7,西,1.6,西北西,13.9,80.6,0,0,0,0,0,0,1009.1,1023.1
132,2024-04-15T02:11:00,0.7,西,1.6,西北西,13.9,79.8,0,0,0,0,0,0,1009.2,1023.2
133,2024-04-15T02:12:00,0.7,西,1.6,西北西,13.7,80,0,0,0,0,0,0,1009.2,1023.2
134,2024-04-15T02:13:00,0.8,西北西,1.6,西北西,13.7,80.5,0,0,0,0,0,0,1009.2,1023.2
135,2024-04-15T02:14:00,0.8,西北西,1.6,西北西,13.6,79.8,0,0,0,0,0,0,1009.1,1023.1
136,2024-04-15T02:15:00,0.8,西北西,1.7,西北西,13.6,79.9,0,0,0,0,0,0,1009.1,1023.1
137,2024-04-15T02:16:00,0.8,西北西,1.7,西北西,13.9,80.1,0,0,0,0,0,0,1009.2,1023.2
138,2024-04-15T02:17:00,0.7,西,1.7,西北西,13.9,79.5,0,0,0,0,0,0,1009.1,1023.1
139,2024-04-15T02:18:00,0.7,西北西,1.7,西北西,13.8,80,0,0,0,0,0,0,1009.2,1023.2
140,2024-04-15T02:19:00,0.6,西北西,1.7,西北西,13.8,80.6,0,0,0,0,0,0,1009.2,1023.2
141,2024-04-15T02:20:00,0.6,西北西,1.7,西北西,14,82.2,0,0,0,0,0,0,1009.1,1023.1
142,2024-04-15T02:21:00,0.5,北西,1.7,西北西,14,81.5,0,0,0,0,0,0,1009.1,1023.1
143,2024-04-15T02:22:00,0.5,北北西,1.7,西北西,14,81.9,0,0,0,0,0,0,1009.1,1023.1
144,2024-04-15T02:23:00,0.5,北,1.7,西北西,14,81.7,0,0,0,0,0,0,1009.2,1023.2
145,2024-04-15T02:24:00,0.4,北北東,1.7,西北西,14.2,82.5,0,0,0,0,0,0,1009.1,1023.1
146,2024-04-15T02:25:00,0.4,東北東,1,西,14.4,82.7,0,0,0,0,0,0,1009.1,1023.1
147,2024-04-15T02:26:00,0.3,東,0.8,西南西,14.4,82.3,0,0,0,0,0,0,1009,1023
148,2024-04-15T02:27:00,0.3,東,0.6,南東,14.3,81.2,0,0,0,0,0,0,1009.1,1023.1
149,2024-04-15T02:28:00,0.3,東,0.6,南東,14.2,82.1,0,0,0,0,0,0,1009,1023
150,2024-04-15T02:29:00,0.3,東南東,0.6,南東,14.2,81.6,0,0,0,0,0,0,1009.1,1023.1
151,2024-04-15T02:30:00,0.2,静穏,0.6,南東,14.1,80.9,0,0,0,0,0,0,1009.1,1023.1
152,2024-04-15T02:31:00,0.2,静穏,0.6,南東,14.3,80.7,0,0,0,0,0,0,1009.1,1023.1
153,2024-04-15T02:32:00,0.2,静穏,0.6,南東,14.2,81.1,0,0,0,0,0,0,1009.1,1023.1
154,2024-04-15T02:33:00,0.2,静穏,0.6,南東,14,80.5,0,0,0,0,0,0,1009.1,1023.1
155,2024-04-15T02:34:00,0.2,静穏,0.6,南東,13.9,80.2,0,0,0,0,0,0,1009.1,1023.1
156,2024-04-15T02:35:00,0.2,静穏,0.6,南東,13.9,80.9,0,0,0,0,0,0,1009.1,1023.1
157,2024-04-15T02:36:00,0.2,静穏,0.6,東,14,81.8,0,0,0,0,0,0,1009.2,1023.2
158,2024-04-15T02:37:00,0.2,静穏,1,東,14,82.9,0,0,0,0,0,0,1009.1,1023.1
159,2024-04-15T02:38:00,0.3,東,1,東,13.8,81.1,0,0,0,0,0,0,1009.1,1023.1
160,2024-04-15T02:39:00,0.3,東,1,東,13.6,81,0,0,0,0,0,0,1009.1,1023.1
161,2024-04-15T02:40:00,0.3,東南東,1,東,14,83.9,0,0,0,0,0,0,1009.2,1023.2
162,2024-04-15T02:41:00,0.3,東南東,1,東,14,82.1,0,0,0,0,0,0,1009.2,1023.2
163,2024-04-15T02:42:00,0.3,東南東,1,東,13.6,81.3,0,0,0,0,0,0,1009.1,1023.1
164,2024-04-15T02:43:00,0.4,東南東,1,東,13.6,82.4,0,0,0,0,0,0,1009.1,1023.1
165,2024-04-15T02:44:00,0.4,東南東,1,東,13.7,83.7,0,0,0,0,0,0,1009.1,1023.1
166,2024-04-15T02:45:00,0.4,南東,1,東,14,84.4,0,0,0,0,0,0,1009.1,1023.1
167,2024-04-15T02:46:00,0.4,南東,1,東,13.8,83,0,0,0,0,0,0,1009.2,1023.2
168,2024-04-15T02:47:00,0.3,南南東,0.9,東北東,13.9,83.6,0,0,0,0,0,0,1009.2,1023.2
169,2024-04-15T02:48:00,0.3,南南東,0.9,東北東,13.8,83.4,0,0,0,0,0,0,1009.2,1023.2
170,2024-04-15T02:49:00,0.3,南,0.8,南南西,13.8,82.6,0,0,0,0,0,0,1009.1,1023.1
171,2024-04-15T02:50:00,0.4,南,0.9,南南西,13.3,81.3,0,0,0,0,0,0,1009.1,1023.1
172,2024-04-15T02:51:00,0.4,南,0.9,南南西,13.1,82.6,0,0,0,0,0,0,1009.1,1023.1
173,2024-04-15T02:52:00,0.4,南,0.9,南南西,13.3,84.7,0,0,0,0,0,0,1009.2,1023.2
174,2024-04-15T02:53:00,0.4,南,0.9,南南西,13.4,84,0,0,0,0,0,0,1009.1,1023.1
175,2024-04-15T02:54:00,0.4,南,0.9,南南西,13.3,82.9,0,0,0,0,0,0,1009.2,1023.2
176,2024-04-15T02:55:00,0.5,南南西,1.3,南南西,13.5,84.3,0,0,0,0,0,0,1009.1,1023.1
177,2024-04-15T02:56:00,0.5,南南西,1.3,南南西,13.6,84.6,0,0,0,0,0,0,1009.1,1023.1
178,2024-04-15T02:57:00,0.5,南南西,1.3,南南西,13.2,83.2,0,0,0,0,0,0,1009.2,1023.2
179,2024-04-15T02:58:00,0.6,南南西,1.3,南南西,12.9,84,0,0,0,0,0,0,1009.2,1023.2
180,2024-04-15T02:59:00,0.6,南南西,1.3,南南西,13.1,85.8,0,0,0,0,0,0,1009.1,1023.1
181,2024-04-15T03:00:00,0.6,南南西,1.3,南南西,13.4,87.3,0,0,0,0,0,0,1009.1,1023.1
182,2024-04-15T03:01:00,0.6,南南西,1.3,南南西,13.4,87.3,0,0,0,0,0,0,1009.1,1023.1
183,2024-04-15T03:02:00,0.5,南南西,1.3,南南西,13.6,86.1,0,0,0,0,0,0,1009.1,1023.1
184,2024-04-15T03:03:00,0.5,南南西,1.3,南南西,13.6,85.2,0,0,0,0,0,0,1009.2,1023.2
185,2024-04-15T03:04:00,0.5,南西,1.3,南南西,13.3,83.5,0,0,0,0,0,0,1009.2,1023.2
186,2024-04-15T03:05:00,0.5,南西,1.1,南,13.1,83.4,0,0,0,0,0,0,1009.2,1023.2
187,2024-04-15T03:06:00,0.5,南西,1,南南西,13.3,85.5,0,0,0,0,0,0,1009.2,1023.2
188,2024-04-15T03:07:00,0.5,南西,1.4,南南東,13.6,87.2,0,0,0,0,0,0,1009.1,1023.1
189,2024-04-15T03:08:00,0.5,南南西,1.4,南南東,13.6,86.5,0,0,0,0,0,0,1009.2,1023.2
190,2024-04-15T03:09:00,0.5,南南西,1.4,南南東,13.6,85.3,0,0,0,0,0,0,1009.1,1023.1
191,2024-04-15T03:10:00,0.5,南南西,1.4,南南東,13.2,85,0,0,0,0,0,0,1009.1,1023.1
192,2024-04-15T03:11:00,0.6,南南西,1.6,南西,13.4,87.2,0,0,0,0,0,0,1009.1,1023.1
193,2024-04-15T03:12:00,0.7,南南西,1.6,南西,13.5,87.5,0,0,0,0,0,0,1009,1023
194,2024-04-15T03:13:00,0.7,南西,1.6,南西,13.2,86.5,0,0,0,0,0,0,1009.1,1023.1
195,2024-04-15T03:14:00,0.8,南南西,2,南西,13.4,88.3,0,0,0,0,0,0,1009,1023
196,2024-04-15T03:15:00,0.8,南南西,2,南西,13.6,88.7,0,0,0,0,0,0,1009,1023
197,2024-04-15T03:16:00,0.8,南西,2,南西,13.5,86.4,0,0,0,0,0,0,1009,1023
198,2024-04-15T03:17:00,0.8,南西,2,南西,13.7,87.6,0,0,0,0,0,0,1008.9,1022.9
199,2024-04-15T03:18:00,0.9,南西,2,南西,13,85.3,0,0,0,0,0,0,1008.9,1022.9
200,2024-04-15T03:19:00,0.9,南西,2,南西,13.1,87.6,0,0,0,0,0,0,1009,1023
201,2024-04-15T03:20:00,1,南西,2,南西,13.2,88.3,0,0,0,0,0,0,1009,1023
202,2024-04-15T03:21:00,1,南西,2,南西,13.6,89.6,0,0,0,0,0,0,1009,1023
203,2024-04-15T03:22:00,1.1,南西,2.1,南南西,13.7,89.8,0,0,0,0,0,0,1009,1023
204,2024-04-15T03:23:00,1.1,南西,2.1,南南西,13.5,87.9,0,0,0,0,0,0,1009,1023
205,2024-04-15T03:24:00,1.1,南西,2.1,南南西,13,85.4,0,0,0,0,0,0,1009,1023
206,2024-04-15T03:25:00,1.2,南西,2.1,南南西,12.6,85.2,0,0,0,0,0,0,1009,1023.1
207,2024-04-15T03:26:00,1.2,南西,2.1,南南西,13.2,89.1,0,0,0,0,0,0,1009,1023
208,2024-04-15T03:27:00,1.2,南西,2.1,南南西,13.5,91.2,0,0,0,0,0,0,1009,1023
209,2024-04-15T03:28:00,1.2,南西,2.1,南南西,13.5,89.6,0,0,0,0,0,0,1009,1023
210,2024-04-15T03:29:00,1.2,南西,2.1,南南西,13.6,88.7,0,0,0,0,0,0,1008.9,1022.9
211,2024-04-15T03:30:00,1.1,南西,2.1,南南西,13.4,87.2,0,0,0,0,0,0,1009,1023
212,2024-04-15T03:31:00,0.9,南西,2.1,南南西,13.6,87.1,0,0,0,0,0,0,1009,1023
213,2024-04-15T03:32:00,0.8,南西,2.1,西,13.2,86.2,0,0,0,0,0,0,1009,1023
214,2024-04-15T03:33:00,0.8,南西,2.1,西,13.1,86.3,0,0,0,0,0,0,1009,1023
215,2024-04-15T03:34:00,0.7,南西,1.7,西南西,13.4,87.8,0,0,0,0,0,0,1009,1023
216,2024-04-15T03:35:00,0.7,南西,1.5,南南東,13.3,87.4,0,0,0,0,0,0,1009,1023
217,2024-04-15T03:36:00,0.7,南南西,1.5,南南東,13.4,87.4,0,0,0,0,0,0,1009,1023
218,2024-04-15T03:37:00,0.7,南南西,1.5,南南東,13.3,87.3,0,0,0,0,0,0,1009,1023
219,2024-04-15T03:38:00,0.7,南南西,1.5,南南東,13.1,85.5,0,0,0,0,0,0,1008.9,1022.9
220,2024-04-15T03:39:00,0.6,南西,1.5,南南東,12.8,85.4,0,0,0,0,0,0,1008.9,1023
221,2024-04-15T03:40:00,0.6,南西,1.5,南南東,12.9,86.3,0,0,0,0,0,0,1008.9,1022.9
222,2024-04-15T03:41:00,0.6,南西,1.5,南南東,13.2,87.7,0,0,0,0,0,0,1008.8,1022.8
223,2024-04-15T03:42:00,0.6,南西,1.5,南南東,13.2,87.8,0,0,0,0,0,0,1008.8,1022.8
224,2024-04-15T03:43:00,0.6,南南西,1.5,南南東,13.3,86.7,0,0,0,0,0,0,1008.8,1022.8
225,2024-04-15T03:44:00,0.5,南西,1.5,南南東,13.3,86.6,0,0,0,0,0,0,1008.8,1022.8
226,2024-04-15T03:45:00,0.5,南西,1.5,南南東,13.5,87.7,0,0,0,0,0,0,1008.8,1022.8
227,2024-04-15T03:46:00,0.4,南西,1,南,13.5,86.8,0,0,0,0,0,0,1008.8,1022.8
228,2024-04-15T03:47:00,0.4,南西,1,南,13.5,87,0,0,0,0,0,0,1008.8,1022.8
229,2024-04-15T03:48:00,0.4,南西,1,南,13.4,86.5,0,0,0,0,0,0,1008.8,1022.8
230,2024-04-15T03:49:00,0.4,南西,1,南,13.4,87.2,0,0,0,0,0,0,1008.8,1022.8
231,2024-04-15T03:50:00,0.4,南西,1,南,13.3,85.8,0,0,0,0,0,0,1008.8,1022.8
232,2024-04-15T03:51:00,0.4,南西,1,南,13.3,86.2,0,0,0,0,0,0,1008.7,1022.7
233,2024-04-15T03:52:00,0.4,南西,1,南,13.3,86.9,0,0,0,0,0,0,1008.7,1022.7
234,2024-04-15T03:53:00,0.4,南西,1,南,13.1,85.9,0,0,0,0,0,0,1008.7,1022.7
235,2024-04-15T03:54:00,0.4,南西,1,南,13.1,85.8,0,0,0,0,0,0,1008.7,1022.7
236,2024-04-15T03:55:00,0.4,南西,0.8,西,12.9,85.3,0,0,0,0,0,0,1008.7,1022.7
237,2024-04-15T03:56:00,0.4,西南西,1,南西,13.2,89,0,0,0,0,0,0,1008.7,1022.7
238,2024-04-15T03:57:00,0.4,西南西,1,南西,12.9,88.1,0,0,0,0,0,0,1008.7,1022.7
239,2024-04-15T03:58:00,0.4,西南西,1,南西,13,89.1,0,0,0,0,0,0,1008.7,1022.7
240,2024-04-15T03:59:00,0.4,西南西,1,南西,12.7,88.5,0,0,0,0,0,0,1008.8,1022.9
241,2024-04-15T04:00:00,0.4,西南西,1,南西,13,89.9,0,0,0,0,0,0,1008.7,1022.7
242,2024-04-15T04:01:00,0.5,西南西,1.1,西北西,12.9,88.3,0,0,0,0,0,0,1008.7,1022.7
243,2024-04-15T04:02:00,0.5,西南西,1.1,西北西,12.9,87.6,0,0,0,0,0,0,1008.6,1022.6
244,2024-04-15T04:03:00,0.6,西南西,1.1,西北西,12.7,87.8,0,0,0,0,0,0,1008.6,1022.7
245,2024-04-15T04:04:00,0.6,西南西,1.2,西,12.7,89.6,0,0,0,0,0,0,1008.6,1022.7
246,2024-04-15T04:05:00,0.6,西南西,1.2,西,12.9,90.8,0,0,0,0,0,0,1008.6,1022.6
247,2024-04-15T04:06:00,0.6,西南西,1.2,西,13,90.6,0,0,0,0,0,0,1008.6,1022.6
248,2024-04-15T04:07:00,0.6,西南西,1.2,西,13.3,90.7,0,0,0,0,0,0,1008.6,1022.6
249,2024-04-15T04:08:00,0.6,西南西,1.2,西,13.5,89.9,0,0,0,0,0,0,1008.5,1022.5
250,2024-04-15T04:09:00,0.6,西南西,1.2,西,13.5,89.1,0,0,0,0,0,0,1008.5,1022.5
251,2024-04-15T04:10:00,0.6,南西,1.2,西,13.4,88.8,0,0,0,0,0,0,1008.5,1022.5
252,2024-04-15T04:11:00,0.6,南西,1.2,西,13.4,88.2,0,0,0,0,0,0,1008.5,1022.5
253,2024-04-15T04:12:00,0.6,南西,1.2,西,13.4,87.6,0,0,0,0,0,0,1008.5,1022.5
254,2024-04-15T04:13:00,0.6,南南西,1.5,南南西,13.1,87.2,0,0,0,0,0,0,1008.5,1022.5
255,2024-04-15T04:14:00,0.6,南南西,1.6,南,13.3,88.3,0,0,0,0,0,0,1008.5,1022.5
256,2024-04-15T04:15:00,0.6,南南西,1.6,南,13.2,88.3,0,0,0,0,0,0,1008.5,1022.5
257,2024-04-15T04:16:00,0.6,南南西,1.6,南,13.2,88.3,0,0,0,0,0,0,1008.5,1022.5
258,2024-04-15T04:17:00,0.6,南南西,1.6,南,13.3,88.1,0,0,0,0,0,0,1008.5,1022.5
259,2024-04-15T04:18:00,0.7,南南西,1.6,南,13.3,87.8,0,0,0,0,0,0,1008.5,1022.5
260,2024-04-15T04:19:00,0.7,南南西,1.6,南,13.1,87.4,0,0,0,0,0,0,1008.5,1022.5
261,2024-04-15T04:20:00,0.7,南南西,1.6,南,13.1,87.7,0,0,0,0,0,0,1008.4,1022.4
262,2024-04-15T04:21:00,0.7,南南西,1.6,南,13.2,88.4,0,0,0,0,0,0,1008.4,1022.4
263,2024-04-15T04:22:00,0.6,南南西,1.6,南,13.2,88.4,0,0,0,0,0,0,1008.4,1022.4
264,2024-04-15T04:23:00,0.6,南南西,1.6,南,13.1,87.9,0,0,0,0,0,0,1008.4,1022.4
265,2024-04-15T04:24:00,0.5,南西,1.2,南南西,13.1,87.8,0,0,0,0,0,0,1008.4,1022.4
266,2024-04-15T04:25:00,0.5,南西,1.2,南南西,12.9,87.2,0,0,0,0,0,0,1008.4,1022.4
267,2024-04-15T04:26:00,0.5,南西,1.1,南西,12.8,87,0,0,0,0,0,0,1008.4,1022.4
268,2024-04-15T04:27:00,0.4,南西,1.1,南西,12.8,87.5,0,0,0,0,0,0,1008.3,1022.3
269,2024-04-15T04:28:00,0.4,西南西,1.1,南西,12.7,87.8,0,0,0,0,0,0,1008.4,1022.4
270,2024-04-15T04:29:00,0.3,西南西,0.8,西南西,12.8,88.5,0,0,0,0,0,0,1008.3,1022.3
271,2024-04-15T04:30:00,0.3,西南西,0.8,西南西,13.1,88.9,0,0,0,0,0,0,1008.3,1022.3
272,2024-04-15T04:31:00,0.3,西南西,0.8,西南西,13.1,88.3,0,0,0,0,0,0,1008.3,1022.3
273,2024-04-15T04:32:00,0.3,西南西,0.8,西南西,13.1,88,0,0,0,0,0,0,1008.2,1022.2
274,2024-04-15T04:33:00,0.3,西南西,0.8,西南西,12.9,87.4,0,0,0,0,0,0,1008.2,1022.2
275,2024-04-15T04:34:00,0.3,南西,0.8,西南西,12.6,87.3,0,0,0,0,0,0,1008.3,1022.4
276,2024-04-15T04:35:00,0.3,南西,0.8,西南西,12.6,88.6,0,0,0,0,0,0,1008.3,1022.4
277,2024-04-15T04:36:00,0.3,南西,0.8,西南西,12.5,89.1,0,0,0,0,0,0,1008.3,1022.4
278,2024-04-15T04:37:00,0.3,南西,0.7,南南西,12.6,90.1,0,0,0,0,0,0,1008.3,1022.4
279,2024-04-15T04:38:00,0.3,南西,0.9,南南西,12.4,89,0,0,0,0,0,0,1008.3,1022.4
280,2024-04-15T04:39:00,0.3,南南西,1.3,南南西,12.3,89.2,0,0,0,0,0,0,1008.4,1022.5
281,2024-04-15T04:40:00,0.4,南南西,1.6,南西,12.5,89.9,0,0,0,0,0,0,1008.4,1022.5
282,2024-04-15T04:41:00,0.5,南南西,1.6,南西,12.4,89.3,0,0,0,0,0,0,1008.4,1022.5
283,2024-04-15T04:42:00,0.6,南南西,1.6,南西,12.5,89.7,0,0,0,0,0,0,1008.4,1022.5
284,2024-04-15T04:43:00,0.7,南南西,1.8,南南西,12.4,90.3,0,0,0,0,0,0,1008.3,1022.4
285,2024-04-15T04:44:00,0.7,南南西,1.8,南南西,12.4,91.2,0,0,0,0,0,0,1008.3,1022.4
286,2024-04-15T04:45:00,0.8,南西,1.8,南南西,12.4,91.6,0,0,0,0,0,0,1008.3,1022.4
287,2024-04-15T04:46:00,0.9,南西,1.9,南南西,12.5,92,0,0,0,0,0,0,1008.3,1022.4
288,2024-04-15T04:47:00,0.9,南西,1.9,南南西,12.4,91.6,0,0,0,0,0,0,1008.3,1022.4
289,2024-04-15T04:48:00,1,南西,1.9,南南西,12.3,91.6,0,0,0,0,0,0,1008.3,1022.4
290,2024-04-15T04:49:00,1,南西,1.9,南南西,12.3,91.8,0,0,0,0,0,0,1008.3,1022.4
291,2024-04-15T04:50:00,1,南西,1.9,南南西,12.4,92.4,0,0,0,0,0,0,1008.3,1022.4
292,2024-04-15T04:51:00,1,南西,1.9,南南西,12.3,92.1,0,0,0,0,0,0,1008.3,1022.4
293,2024-04-15T04:52:00,1.1,南西,1.9,南南西,12.3,91.7,0,0,0,0,0,0,1008.4,1022.5
294,2024-04-15T04:53:00,1,南西,1.9,南南西,12.3,91.7,0,0,0,0,0,0,1008.3,1022.4
295,2024-04-15T04:54:00,0.9,南西,1.9,南南西,12.4,91.8,0,0,0,0,0,0,1008.3,1022.4
296,2024-04-15T04:55:00,0.9,南西,1.9,南南西,12.2,91.5,0,0,0,0,0,0,1008.3,1022.4
297,2024-04-15T04:56:00,0.9,南西,1.7,南南西,12.2,91.7,0,0,0,0,0,0,1008.3,1022.4
298,2024-04-15T04:57:00,0.9,南西,1.7,南南西,12.3,91.8,0,0,0,0,0,0,1008.4,1022.5
299,2024-04-15T04:58:00,0.9,南西,1.7,南南西,12.2,91.5,0,0,0,0,0,0,1008.3,1022.4
300,2024-04-15T04:59:00,0.8,南西,1.7,南南西,12.3,91.7,0,0,0,0,0,0,1008.4,1022.5
301,2024-04-15T05:00:00,0.8,南西,1.7,南南西,12.3,91.7,0,0,0,0,0,0,1008.3,1022.4
302,2024-04-15T05:01:00,0.7,南西,1.6,南南西,12.3,91.5,0,0,0,0,0,0,1008.4,1022.5
303,2024-04-15T05:02:00,0.7,南西,1.6,南南西,12.6,91.6,0,0,0,0,0,0,1008.4,1022.5
304,2024-04-15T05:03:00,0.7,南西,1.6,南南西,12.2,90.5,0,0,0,0,0,0,1008.4,1022.5
305,2024-04-15T05:04:00,0.7,南西,1.6,南南西,12.3,91.3,0,0,0,0,0,0,1008.4,1022.5
306,2024-04-15T05:05:00,0.7,南西,1.6,南南西,12.2,91.9,0,0,0,0,0,0,1008.4,1022.5
307,2024-04-15T05:06:00,0.7,南西,1.6,南南西,12.1,92.3,0,0,0,0,0,0,1008.4,1022.5
308,2024-04-15T05:07:00,0.7,南西,1.6,南南西,12.2,92.4,0,0,0,0,0,0,1008.4,1022.5
309,2024-04-15T05:08:00,0.7,南西,1.6,南南西,12.3,92.8,0,0,0,0,0,0,1008.4,1022.5
310,2024-04-15T05:09:00,0.7,南西,1.6,南南西,12.5,92.8,0,0,0,0,0,0,1008.4,1022.5
311,2024-04-15T05:10:00,0.7,南西,1.4,南南西,12.7,92.4,0,0,0,0,0,0,1008.4,1022.4
312,2024-04-15T05:11:00,0.8,南西,1.4,南南西,12.8,92.2,0,0,0,0,0,0,1008.4,1022.4
313,2024-04-15T05:12:00,0.8,南西,1.4,南南西,12.4,91.4,0,0,0,0,0,0,1008.4,1022.5
314,2024-04-15T05:13:00,0.8,南西,1.4,南南西,12.3,91.9,0,0,0,0,0,0,1008.5,1022.6
315,2024-04-15T05:14:00,0.8,南西,1.4,南南西,12.3,92.3,0,0,0,0,0,0,1008.4,1022.5
316,2024-04-15T05:15:00,0.9,南西,1.5,南西,12.6,92.7,0,0,0,0,0,0,1008.5,1022.6
317,2024-04-15T05:16:00,0.9,南西,1.5,南西,12.6,92.3,0,0,0,0,0,0,1008.4,1022.5
318,2024-04-15T05:17:00,0.9,南西,1.5,南西,12.4,91.6,0,0,0,0,0,0,1008.4,1022.5
319,2024-04-15T05:18:00,0.9,南西,1.5,南西,12.5,92.1,0,0,0,0,0,0,1008.4,1022.5
320,2024-04-15T05:19:00,0.9,南西,1.5,南西,12.6,92.3,0,0,0,0,0,0,1008.5,1022.6
321,2024-04-15T05:20:00,0.9,南西,1.5,南西,12.2,91.2,0,0,0,0,0,0,1008.5,1022.6
322,2024-04-15T05:21:00,0.9,南西,1.5,南西,12.1,90.5,0,0,0,0,0,0,1008.5,1022.6
323,2024-04-15T05:22:00,0.9,南西,1.5,南西,12.4,91.2,0,0,0,0,0,0,1008.4,1022.5
324,2024-04-15T05:23:00,0.9,南西,1.5,南西,12.1,90.7,0,0,0,0,0,0,1008.4,1022.5
325,2024-04-15T05:24:00,0.9,南西,1.5,南西,12,92,0,0,0,0,0,0,1008.5,1022.6
326,2024-04-15T05:25:00,0.8,南西,1.4,南南西,12.1,93.1,0,0,0,0,0,0,1008.5,1022.6